Regional Weather Roundup
Issued by NWS

Home | Current Version | Previous Version | Graphics & Text | Print | Product List | Glossary On
Versions: 1 2 3 4 5 6 7 8 9 10 11 12 13 14 15 16 17 18 19 20 21 22 23 24 25 26 27 28 29 30 31 32 33 34 35 36 37 38 39 40 41 42 43 44 45 46 47 48 49 50
000
ASUS43 KMPX 171910
RWRMN
WEATHER ROUNDUP FOR MINNESOTA
NATIONAL WEATHER SERVICE TWIN CITIES/CHANHASSEN MN
100 PM CST TUE JAN 17 2017


NOTE: "FAIR" INDICATES FEW OR NO CLOUDS BELOW 12,000 FEET WITH NO
SIGNIFICANT WEATHER AND/OR OBSTRUCTIONS TO VISIBILITY. N/A MEANS
CURRENT SKY AND/OR WEATHER CONDITIONS ARE NOT AVAILABLE.

MNZ060>063-068>070-172000-
   Twin Cities Metro

CITY           SKY/WX    TMP DP  RH WIND       PRES   REMARKS
TWIN CITIES    PTSUNNY   35  29  78 NW7       29.96F WCI  29
ST PAUL        MOSUNNY   34  28  79 NW5       29.96F WCI  30
CRYSTAL        CLOUDY    34  26  72 NW8       29.96F WCI  27
BLAINE         CLOUDY    36  28  75 NW6       29.96F
LAKEVILLE      CLOUDY    32  30  93 NW8       29.95F WCI  25
EDEN PRAIRIE   CLOUDY    35  29  78 NW7       29.95F WCI  29
SOUTH ST PAUL  CLOUDY    34  28  79 NW6       29.95F WCI  29
LAKE ELMO      FAIR      34  30  86 W3        29.95F
$$
MNZ001>005-007-008-013>017-022>024-027-028-172000-
   Northwest Minnesota

CITY           SKY/WX    TMP DP  RH WIND       PRES   REMARKS
BEMIDJI        SUNNY     27  16  62 SW5       29.88F WCI  22
HALLOCK        CLOUDY    14  10  85 S16       29.81F WCI  -2
ROSEAU         CLOUDY    19  16  86 S12       29.81F WCI   7
WARROAD        CLOUDY    23  16  74 SW7       29.82F WCI  15
THIEF RVR FALL CLOUDY    19  14  81 S12       29.87F WCI   7
CROOKSTON      CLOUDY    12  10  92 S14       29.89F WCI  -3
FOSSTON        CLOUDY    19  12  73 S12       29.89F WCI   7
DETROIT LAKES  CLOUDY    23  18  80 S6        29.92F WCI  16
MOORHEAD       SUNNY     14   9  79 S12       29.95F WCI   0
PARK RAPIDS    SUNNY     22  15  75 S3        29.90F
MAHNOMEN       FAIR      19  15  85 S13       29.89F WCI   6
$$
MNZ006-009>011-018-025>026-172000-
   North Central Minnesota

CITY           SKY/WX    TMP DP  RH WIND       PRES   REMARKS
BAUDETTE       CLOUDY    22  12  65 S7        29.83F WCI  13
FLAG ISLAND    CLOUDY    10   7  85 S14       29.81F WCI  -5
INTL FALLS     CLOUDY    26  14  60 SW6       29.86F WCI  19
WASKISH        CLOUDY    21  12  68 W3        29.87F
BIG FORK       SUNNY     27  18  69 S5        29.88F WCI  21
LONGVILLE      SUNNY     30  16  55 CALM      29.90F
GRAND RAPIDS   SUNNY     32  19  58 S3        29.92F
CRANE LAKE     CLOUDY    28  19  69 S5        29.90F WCI  23
ORR            SUNNY     28  16  59 S6        29.86F WCI  22
COOK           SUNNY     30  19  64 SW5       29.89F WCI  25
WALKER         FAIR      28  15  59 CALM      29.88F
$$
MNZ012-019>021-037-172000-
   Northeast Minnesota

CITY           SKY/WX    TMP DP  RH WIND       PRES   REMARKS
DULUTH         MOSUNNY   32  29  88 CALM      29.90S
ELY            SUNNY     30  23  74 SW7       29.88F WCI  23
HIBBING        SUNNY     26  18  71 CALM      29.89F
EVELETH        SUNNY     24  22  93 W3        29.91F
DULUTH HARBOR  CLOUDY    32  28  86 CALM      29.94F FOG
TWO HARBORS    PTSUNNY   34  28  80 W5        29.89F HAZE    WCI  30
SILVER BAY     SUNNY     36  28  75 CALM      29.88F
GRAND MARAIS     N/A     33  30  88 CALM      29.91F
G MARAIS ARPRT SUNNY     36  19  51 SW3       29.86F
$$
MNZ029>031-032-039>041-046>048-054>057-064-172000-
   West Central Minnesota

CITY           SKY/WX    TMP DP  RH WIND       PRES   REMARKS
FERGUS FALLS   CLOUDY    12  10  92 S6        30.00F WCI   3
WHEATON        CLOUDY    27  21  80 SE7       29.99F WCI  19
MORRIS         SUNNY     21  18  86 SW3       29.96F
ALEXANDRIA     SUNNY     24  16  71 SW6       29.94F WCI  17
ELBOW LAKE     FAIR      14  13  95 SE3       29.97F FOG
WADENA         SUNNY     19  18  93 SW5       29.92F WCI  13
GLENWOOD       SUNNY     21  14  73 SW10      29.96F WCI  10
APPLETON       SUNNY     18  12  79 CALM      29.99F
ORTONVILLE     CLOUDY    23  14  68 CALM      29.98F
MADISON        SUNNY     25  16  68 CALM      29.99F
WILLMAR        FOG       21  21 100 W5        30.00F VSB 1/4 WCI  15
$$
MNZ033>034-036-042>043-049>051-058-059-172000-
   Central Minnesota

CITY           SKY/WX    TMP DP  RH WIND       PRES   REMARKS
ST CLOUD       CLOUDY    30  30 100 SW8       29.97F FOG     WCI  22
SAUK CENTRE    FAIR      24  17  74 SW5       29.97S WCI  18
PAYNESVILLE    FOG       28  28 100 W8        29.98F VSB 1/2 WCI  20
AITKIN         SUNNY     32  14  47 CALM      29.92F
PINE RIVER     SUNNY     27  18  69 SE5       29.95F WCI  21
BRAINERD       SUNNY     24  15  68 SW6       29.94F WCI  17
STAPLES        SUNNY     23  16  74 S5        29.92F WCI  17
LONG PRAIRIE   FAIR      27  16  63 S5        29.95F WCI  21
LITTLE FALLS   SUNNY     30  19  64 SW5       29.97F WCI  25
LITCHFIELD     CLOUDY    32  30  93 W5        29.98F FOG     WCI  27
BUFFALO        CLOUDY    34  31  88 W5        29.98S WCI  29
MAPLE LAKE     PTSUNNY   34  32  93 W5        29.98F WCI  30
HUTCHINSON     CLOUDY    29  28  96 W8        30.00S FOG     WCI  21
$$
MNZ037-044-045-052-053-172000-
   East Central Minnesota

CITY           SKY/WX    TMP DP  RH WIND       PRES   REMARKS
PRINCETON      CLOUDY    34  28  80 W7        29.97S WCI  28
MORA           SUNNY     34  21  60 W7        29.97S WCI  28
CAMBRIDGE      PTSUNNY   34  27  75 W7        29.94S WCI  28
RUSH CITY      SUNNY     36  25  64 W5        29.95S
MOOSE LAKE     SUNNY     34  23  64 CALM      29.91F
HINCKLEY       FAIR      36  27  69 W6        29.94S
CLOQUET        SUNNY     30  28  93 CALM      29.90F
MCGREGOR       SUNNY     32  19  59 W7        29.93F WCI  26
$$
MNZ071>073-080-081-089-090-097-098-172000-
   Southwest Minnesota

CITY           SKY/WX    TMP DP  RH WIND       PRES   REMARKS
MONTEVIDEO     SUNNY     27  16  63 NW3       30.02S
GRANITE FALLS  SUNNY     23  17  77 W6        30.02F WCI  15
CANBY            N/A     28  22  77 CALM      30.00S
MARSHALL       SUNNY     29  21  72 W9        29.99F WCI  20
REDWOOD FALLS  CLOUDY    25  19  78 NW5       30.00F WCI  19
OLIVIA         CLOUDY    27  23  86 W5        29.99F FOG     WCI  21
PIPESTONE      SUNNY     25  21  86 W8        29.99F WCI  16
WINDOM         FOG       30  30 100 SW6       29.98F VSB 1/4 WCI  24
WORTHINGTON    SNOW      29  27  92 SW10      29.99F VSB 1/2 WCI  20
JACKSON        FOG       30  30 100 W6        30.00S VSB 1/4 WCI  24
TRACY          SUNNY     33  27  79 W7        29.99S WCI  27
SLAYTON        SUNNY     27  27  99 W8        29.99S WCI  18
$$
MNZ065>067-074>077-082>085-091>093-172000-
   South Central Minnesota

CITY           SKY/WX    TMP DP  RH WIND       PRES   REMARKS
MANKATO        FOG       29  28  96 W8        29.98F VSB 1/2 WCI  21
NEW ULM        CLOUDY    25  25 100 W12       30.00S FOG     WCI  14
ST JAMES       CLOUDY    28  27  93 W8        30.02R FOG     WCI  20
FAIRMONT       CLOUDY    30  29  96 W13       30.00S FOG     WCI  20
GLENCOE        CLOUDY    34  33  99 W6        29.98R FOG     WCI  29
FARIBAULT        N/A     34  30  86 NW5       29.96S FOG     WCI  30
OWATONNA       CLOUDY    32  28  86 NW3       29.96R FOG
WASECA         CLOUDY    32  30  93 NW5       29.97F FOG     WCI  27
ALBERT LEA     FOG       32  32 100 NW3       29.95S VSB 3/4
$$
MNZ078>079-086>088-094>096-172000-
   Southeast Minnesota

CITY           SKY/WX    TMP DP  RH WIND       PRES   REMARKS
ROCHESTER      FOG       32  32 100 NW14      29.91S VSB 1/4 WCI  22
RED WING       CLOUDY    36  30  80 NW5       29.93S FOG
STANTON        CLOUDY    33  29  85 NW8       29.95S FOG     WCI  26
DODGE CENTER   FOG       32  32 100 CALM      29.92S VSB 3/4
WINONA         RAIN      34  34 100 NW5       29.92S WCI  30
AUSTIN         FOG       32  30  93 NW3       29.93S VSB 3/4
PRESTON        CLOUDY    32  31  98 NW7       29.91S FOG     WCI  26
$$
ABBREVIATIONS USED IN REMARKS
   TC - TEMPERATURES IN CELSIUS
  WCI - WIND CHILL INDEX
   HX - HEAT INDEX
  VSB - VISIBILITY
$$




USA.gov is the U.S. government's official web portal to all federal, state and local government web resources and services.